Time,TemperatureF,DewpointF,PressureIn,WindDirection,WindDirectionDegrees,WindSpeedMPH,WindSpeedGustMPH,Humidity,HourlyPrecipIn,Conditions,Clouds,dailyrainin,SolarRadiationWatts/m^2,SoftwareType,DateUTC
2013-03-30 00:02:00,37.0,-99.9,-100.00,SW,221,0.0,6.0,0,0.00,,,0.00,0.000000,,2013-03-30 07:02:00,
2013-03-30 00:32:00,35.0,-49.0,-100.00,SSW,193,0.0,4.0,0,0.00,,,0.00,0.000000,,2013-03-30 07:32:00,
2013-03-30 00:42:00,35.0,-99.9,-100.00,SSW,193,0.0,4.0,0,0.00,,,0.00,0.000000,,2013-03-30 07:42:00,
2013-03-30 00:52:00,35.0,-99.9,-100.00,SSW,193,0.0,4.0,0,0.00,,,0.00,0.000000,,2013-03-30 07:52:00,
2013-03-30 01:02:00,35.0,-99.9,-100.00,SSW,193,0.0,4.0,0,0.00,,,0.00,0.000000,,2013-03-30 08:02:00,
2013-03-30 01:03:00,34.0,-99.9,-100.00,SSW,197,0.0,4.0,0,0.00,,,0.00,0.000000,,2013-03-30 08:03:00,
2013-03-30 01:22:00,34.0,-50.0,-100.00,SSW,197,0.0,4.0,0,0.00,,,0.00,0.000000,,2013-03-30 08:22:00,
2013-03-30 01:32:00,34.0,-50.0,-100.00,SSW,197,0.0,4.0,0,0.00,,,0.00,0.000000,,2013-03-30 08:32:00,
2013-03-30 01:42:00,34.0,-99.9,-100.00,SSW,197,0.0,4.0,0,0.00,,,0.00,0.000000,,2013-03-30 08:42:00,
2013-03-30 01:53:00,34.0,-99.9,-100.00,SSW,197,0.0,4.0,0,0.00,,,0.00,0.000000,,2013-03-30 08:53:00,
2013-03-30 02:03:00,34.0,-99.9,-100.00,South,174,0.0,2.0,0,0.00,,,0.00,0.000000,,2013-03-30 09:03:00,
2013-03-30 02:33:00,34.0,-50.0,-100.00,South,174,0.0,2.0,0,0.00,,,0.00,0.000000,,2013-03-30 09:33:00,
2013-03-30 02:43:00,34.0,-99.9,-100.00,South,174,0.0,2.0,0,0.00,,,0.00,0.000000,,2013-03-30 09:43:00,
2013-03-30 02:54:00,34.0,-99.9,-100.00,South,174,0.0,2.0,0,0.00,,,0.00,0.000000,,2013-03-30 09:54:00,
2013-03-30 03:03:00,32.0,-99.9,-100.00,SW,218,0.0,5.0,0,0.00,,,0.00,0.000000,,2013-03-30 10:03:00,
2013-03-30 03:23:00,32.0,-51.0,-100.00,SW,218,0.0,5.0,0,0.00,,,0.00,0.000000,,2013-03-30 10:23:00,
2013-03-30 03:33:00,32.0,-51.0,-100.00,SW,218,0.0,5.0,0,0.00,,,0.00,0.000000,,2013-03-30 10:33:00,
2013-03-30 03:42:00,32.0,-99.9,-100.00,SW,218,0.0,5.0,0,0.00,,,0.00,0.000000,,2013-03-30 10:42:00,
2013-03-30 03:53:00,32.0,-99.9,-100.00,SW,218,0.0,5.0,0,0.00,,,0.00,0.000000,,2013-03-30 10:53:00,
2013-03-30 04:03:00,32.0,-99.9,-100.00,SW,221,0.0,3.0,0,0.00,,,0.00,0.000000,,2013-03-30 11:03:00,
2013-03-30 04:33:00,32.0,-51.0,-100.00,SW,221,0.0,3.0,0,0.00,,,0.00,0.000000,,2013-03-30 11:33:00,
2013-03-30 04:43:00,32.0,-99.9,-100.00,SW,221,0.0,3.0,0,0.00,,,0.00,0.000000,,2013-03-30 11:43:00,
2013-03-30 04:53:00,32.0,-99.9,-100.00,SW,221,0.0,3.0,0,0.00,,,0.00,0.000000,,2013-03-30 11:53:00,
2013-03-30 05:33:00,33.0,-50.0,-100.00,SSW,197,0.0,4.0,0,0.00,,,0.00,0.000000,,2013-03-30 12:33:00,
2013-03-30 05:43:00,33.0,-99.9,-100.00,SSW,197,0.0,4.0,0,0.00,,,0.00,0.000000,,2013-03-30 12:43:00,
2013-03-30 05:54:00,33.0,-99.9,-100.00,SSW,197,0.0,4.0,0,0.00,,,0.00,0.000000,,2013-03-30 12:54:00,
2013-03-30 06:02:00,33.0,-99.9,-100.00,SSW,197,0.0,4.0,0,0.00,,,0.00,0.000000,,2013-03-30 13:02:00,
2013-03-30 06:03:00,32.0,-99.9,-100.00,SSW,213,0.0,0.0,0,0.00,,,-99.99,0.000000,,2013-03-30 13:03:00,
2013-03-30 06:32:00,32.0,-51.0,-100.00,SSW,213,0.0,0.0,0,0.00,,,-99.99,0.000000,,2013-03-30 13:32:00,
2013-03-30 06:43:00,32.0,-99.9,-100.00,SSW,213,0.0,0.0,0,0.00,,,-99.99,0.000000,,2013-03-30 13:43:00,
2013-03-30 06:53:00,32.0,-99.9,-100.00,SSW,213,0.0,0.0,0,0.00,,,-99.99,0.000000,,2013-03-30 13:53:00,
2013-03-30 07:03:00,35.0,-99.9,-100.00,SSW,198,0.0,0.0,0,0.00,,,0.00,18.000000,,2013-03-30 14:03:00,
2013-03-30 07:23:00,35.0,-49.0,-100.00,SSW,198,0.0,0.0,0,0.00,,,0.00,18.000000,,2013-03-30 14:23:00,
2013-03-30 07:32:00,35.0,-49.0,-100.00,SSW,198,0.0,0.0,0,0.00,,,0.00,18.000000,,2013-03-30 14:32:00,
2013-03-30 07:43:00,35.0,-99.9,-100.00,SSW,198,0.0,0.0,0,0.00,,,0.00,18.000000,,2013-03-30 14:43:00,
2013-03-30 07:53:00,35.0,-99.9,-100.00,SSW,198,0.0,0.0,0,0.00,,,0.00,18.000000,,2013-03-30 14:53:00,
2013-03-30 08:34:00,44.0,-43.0,-100.00,NNE,32,0.0,3.0,0,0.00,,,0.00,135.000000,,2013-03-30 15:34:00,
2013-03-30 09:33:00,58.0,-34.0,-100.00,North,9,0.0,0.0,0,0.00,,,0.00,309.000000,,2013-03-30 16:33:00,
2013-03-30 10:33:00,58.0,-34.0,-100.00,WNW,296,0.0,5.0,0,-99.99,,,0.00,316.000000,,2013-03-30 17:33:00,
2013-03-30 11:03:00,57.0,-99.9,-100.00,South,183,5.0,13.0,0,0.00,,,0.00,354.000000,,2013-03-30 18:03:00,
2013-03-30 11:33:00,57.0,-35.0,-100.00,South,183,5.0,13.0,0,0.00,,,0.00,354.000000,,2013-03-30 18:33:00,
2013-03-30 11:43:00,57.0,-99.9,-100.00,South,183,5.0,13.0,0,0.00,,,0.00,354.000000,,2013-03-30 18:43:00,
2013-03-30 11:53:00,57.0,-99.9,-100.00,South,183,5.0,13.0,0,0.00,,,0.00,354.000000,,2013-03-30 18:53:00,
2013-03-30 12:32:00,57.0,-35.0,-100.00,WNW,303,5.0,12.0,0,0.00,,,0.00,324.000000,,2013-03-30 19:32:00,
2013-03-30 12:43:00,57.0,-99.9,-100.00,WNW,303,5.0,12.0,0,0.00,,,0.00,324.000000,,2013-03-30 19:43:00,
2013-03-30 12:53:00,57.0,-99.9,-100.00,WNW,303,5.0,12.0,0,0.00,,,0.00,324.000000,,2013-03-30 19:53:00,
2013-03-30 13:02:00,57.0,-99.9,-100.00,WNW,303,5.0,12.0,0,0.00,,,0.00,324.000000,,2013-03-30 20:02:00,
2013-03-30 13:03:00,60.0,-99.9,-100.00,ESE,118,4.0,14.0,0,0.00,,,0.00,569.000000,,2013-03-30 20:03:00,
2013-03-30 13:33:00,60.0,-33.0,-100.00,ESE,118,4.0,14.0,0,0.00,,,0.00,569.000000,,2013-03-30 20:33:00,
2013-03-30 13:43:00,60.0,-99.9,-100.00,ESE,118,4.0,14.0,0,0.00,,,0.00,569.000000,,2013-03-30 20:43:00,
2013-03-30 13:53:00,60.0,-99.9,-100.00,ESE,118,4.0,14.0,0,0.00,,,0.00,569.000000,,2013-03-30 20:53:00,
2013-03-30 14:03:00,61.0,-99.9,-100.00,WNW,290,4.0,14.0,0,0.00,,,0.00,769.000000,,2013-03-30 21:03:00,
2013-03-30 14:34:00,61.0,-33.0,-100.00,WNW,290,4.0,14.0,0,0.00,,,0.00,769.000000,,2013-03-30 21:34:00,
2013-03-30 14:43:00,61.0,-99.9,-100.00,WNW,290,4.0,14.0,0,0.00,,,0.00,769.000000,,2013-03-30 21:43:00,
2013-03-30 14:53:00,61.0,-99.9,-100.00,WNW,290,4.0,14.0,0,0.00,,,0.00,769.000000,,2013-03-30 21:53:00,
2013-03-30 15:03:00,61.0,-99.9,-100.00,SSW,199,5.0,13.0,0,0.00,,,0.00,572.000000,,2013-03-30 22:03:00,
2013-03-30 15:33:00,61.0,-33.0,-100.00,SSW,199,5.0,13.0,0,0.00,,,0.00,572.000000,,2013-03-30 22:33:00,
2013-03-30 15:44:00,61.0,-99.9,-100.00,SSW,199,5.0,13.0,0,0.00,,,0.00,572.000000,,2013-03-30 22:44:00,
2013-03-30 15:54:00,61.0,-99.9,-100.00,SSW,199,5.0,13.0,0,0.00,,,0.00,572.000000,,2013-03-30 22:54:00,
2013-03-30 16:03:00,62.0,-99.9,-100.00,East,97,3.0,14.0,0,0.00,,,0.00,613.000000,,2013-03-30 23:03:00,
2013-03-30 16:22:00,62.0,-32.0,-100.00,East,97,3.0,14.0,0,0.00,,,0.00,613.000000,,2013-03-30 23:22:00,
2013-03-30 16:33:00,62.0,-32.0,-100.00,East,97,3.0,14.0,0,0.00,,,0.00,613.000000,,2013-03-30 23:33:00,
2013-03-30 16:43:00,62.0,-99.9,-100.00,East,97,3.0,14.0,0,0.00,,,0.00,613.000000,,2013-03-30 23:43:00,
2013-03-30 16:53:00,62.0,-99.9,-100.00,East,97,3.0,14.0,0,0.00,,,0.00,613.000000,,2013-03-30 23:53:00,
2013-03-30 17:33:00,57.0,-35.0,-100.00,South,175,2.0,13.0,0,0.00,,,0.00,303.000000,,2013-03-31 00:33:00,
2013-03-30 17:43:00,57.0,-99.9,-100.00,South,175,2.0,13.0,0,0.00,,,0.00,303.000000,,2013-03-31 00:43:00,
2013-03-30 17:53:00,57.0,-99.9,-100.00,South,175,2.0,13.0,0,0.00,,,0.00,303.000000,,2013-03-31 00:53:00,
2013-03-30 18:02:00,57.0,-99.9,-100.00,South,175,2.0,13.0,0,0.00,,,0.00,303.000000,,2013-03-31 01:02:00,
2013-03-30 18:22:00,55.0,-36.0,-100.00,SW,221,2.0,11.0,0,0.00,,,0.00,67.000000,,2013-03-31 01:22:00,
2013-03-30 18:32:00,55.0,-36.0,-100.00,SW,221,2.0,11.0,0,0.00,,,0.00,67.000000,,2013-03-31 01:32:00,
2013-03-30 18:43:00,55.0,-99.9,-100.00,SW,221,2.0,11.0,0,0.00,,,0.00,67.000000,,2013-03-31 01:43:00,
2013-03-30 18:53:00,55.0,-99.9,-100.00,SW,221,2.0,11.0,0,0.00,,,0.00,67.000000,,2013-03-31 01:53:00,
2013-03-30 19:02:00,55.0,-99.9,-100.00,SW,221,2.0,11.0,0,0.00,,,0.00,67.000000,,2013-03-31 02:02:00,
2013-03-30 19:22:00,51.0,-39.0,-100.00,South,171,2.0,11.0,0,0.00,,,0.00,20.000000,,2013-03-31 02:22:00,
2013-03-30 19:33:00,51.0,-39.0,-100.00,South,171,2.0,11.0,0,0.00,,,0.00,20.000000,,2013-03-31 02:33:00,
2013-03-30 19:43:00,51.0,-99.9,-100.00,South,171,2.0,11.0,0,0.00,,,0.00,20.000000,,2013-03-31 02:43:00,
2013-03-30 19:53:00,51.0,-99.9,-100.00,South,171,2.0,11.0,0,0.00,,,0.00,20.000000,,2013-03-31 02:53:00,
2013-03-30 20:02:00,51.0,-99.9,-100.00,South,171,2.0,11.0,0,0.00,,,0.00,20.000000,,2013-03-31 03:02:00,
2013-03-30 20:03:00,43.0,-99.9,-100.00,SSE,160,3.0,4.0,0,0.00,,,-99.99,0.000000,,2013-03-31 03:03:00,
2013-03-30 20:33:00,43.0,-44.0,-100.00,SSE,160,3.0,4.0,0,0.00,,,-99.99,0.000000,,2013-03-31 03:33:00,
2013-03-30 20:44:00,43.0,-99.9,-100.00,SSE,160,3.0,4.0,0,0.00,,,-99.99,0.000000,,2013-03-31 03:44:00,
2013-03-30 20:54:00,43.0,-99.9,-100.00,SSE,160,3.0,4.0,0,0.00,,,-99.99,0.000000,,2013-03-31 03:54:00,
2013-03-30 21:33:00,40.0,-46.0,-100.00,South,177,0.0,5.0,0,0.00,,,0.00,0.000000,,2013-03-31 04:33:00,
2013-03-30 21:43:00,40.0,-99.9,-100.00,South,177,0.0,5.0,0,0.00,,,0.00,0.000000,,2013-03-31 04:43:00,
2013-03-30 21:53:00,40.0,-99.9,-100.00,South,177,0.0,5.0,0,0.00,,,0.00,0.000000,,2013-03-31 04:53:00,
2013-03-30 22:02:00,40.0,-99.9,-100.00,South,177,0.0,5.0,0,0.00,,,0.00,0.000000,,2013-03-31 05:02:00,
2013-03-30 22:22:00,43.0,-44.0,-100.00,South,185,3.0,5.0,0,0.00,,,0.00,0.000000,,2013-03-31 05:22:00,
2013-03-30 22:32:00,43.0,-44.0,-100.00,South,185,3.0,5.0,0,0.00,,,0.00,0.000000,,2013-03-31 05:32:00,
2013-03-30 22:42:00,43.0,-99.9,-100.00,South,185,3.0,5.0,0,0.00,,,0.00,0.000000,,2013-03-31 05:42:00,
2013-03-30 22:53:00,43.0,-99.9,-100.00,South,185,3.0,5.0,0,0.00,,,0.00,0.000000,,2013-03-31 05:53:00,
2013-03-30 23:02:00,43.0,-99.9,-100.00,South,185,3.0,5.0,0,0.00,,,0.00,0.000000,,2013-03-31 06:02:00,
2013-03-30 23:33:00,38.0,-47.0,-100.00,SSW,192,0.0,6.0,0,0.00,,,0.00,0.000000,,2013-03-31 06:33:00,
2013-03-30 23:42:00,38.0,-99.9,-100.00,SSW,192,0.0,6.0,0,0.00,,,0.00,0.000000,,2013-03-31 06:42:00,
2013-03-30 23:53:00,38.0,-99.9,-100.00,SSW,192,0.0,6.0,0,0.00,,,0.00,0.000000,,2013-03-31 06:53:00,